When you browse on this site, cookies collect data to enhance your experience and personalize the content and advertising you see.
Visit our Privacy Policy to learn more. By continuing to use the site, you agree to this use of cookies and data.
  • In Lithuania
  • List of Countries
  • For 7 days
  • Water Temperature
  • Weather Map
  • Weather Widgets
  • user-avatar
    Login

    Hourly Weather Megri

    Today, 26 May, Tuesday

    Time Temperature Precipitation Wind Pressure Humidity
    00:00 +10°C° 0 mm 2 mps 623 mmHg 54%
    01:00 +9°C° 0 mm 2 mps 623 mmHg 57%
    02:00 +9°C° 0 mm 1 mps 622 mmHg 60%
    03:00 +9°C° 0 mm 1 mps 622 mmHg 62%
    04:00 +10°C° 0 mm 1 mps 623 mmHg 61%
    05:00 +11°C° 0 mm 1 mps 624 mmHg 60%
    06:00 +12°C° 0 mm 1 mps 624 mmHg 59%
    07:00 +13°C° 0 mm 1 mps 625 mmHg 53%
    08:00 +15°C° 0 mm 1 mps 625 mmHg 47%
    09:00 +17°C° 0 mm 2 mps 626 mmHg 40%
    10:00 +19°C° 0 mm 1 mps 626 mmHg 37%
    11:00 +20°C° 0 mm 1 mps 627 mmHg 35%
    12:00 +21°C° 0 mm 1 mps 627 mmHg 32%
    13:00 +22°C° 0 mm 1 mps 627 mmHg 31%
    14:00 +23°C° 0 mm 1 mps 627 mmHg 29%
    15:00 +24°C° 0 mm 1 mps 627 mmHg 28%
    16:00 +23°C° 0 mm 2 mps 627 mmHg 33%
    17:00 +21°C° 0 mm 2 mps 627 mmHg 39%
    18:00 +20°C° 0 mm 2 mps 627 mmHg 44%
    19:00 +18°C° 0 mm 2 mps 626 mmHg 51%
    20:00 +16°C° 0 mm 3 mps 626 mmHg 59%
    21:00 +13°C° 0 mm 3 mps 626 mmHg 66%
    22:00 +13°C° 0 mm 3 mps 626 mmHg 67%
    23:00 +12°C° 0 mm 3 mps 626 mmHg 68%

    Tomorrow, 27 May, Wednesday

    Time Temperature Precipitation Wind Pressure Humidity
    00:00 +13°C° 0 mm 2 mps 625 mmHg 69%
    01:00 +13°C° 0 mm 2 mps 625 mmHg 69%
    02:00 +12°C° 0 mm 2 mps 625 mmHg 69%
    03:00 +12°C° 0 mm 2 mps 625 mmHg 69%
    04:00 +13°C° 0 mm 2 mps 625 mmHg 67%
    05:00 +14°C° 0 mm 2 mps 626 mmHg 65%
    06:00 +14°C° 0 mm 2 mps 626 mmHg 64%
    07:00 +16°C° 0 mm 2 mps 627 mmHg 59%
    08:00 +18°C° 0 mm 2 mps 628 mmHg 53%
    09:00 +19°C° 0 mm 2 mps 628 mmHg 48%
    10:00 +20°C° 0 mm 2 mps 628 mmHg 45%
    11:00 +23°C° 0 mm 2 mps 628 mmHg 42%
    12:00 +24°C° 0 mm 2 mps 628 mmHg 39%
    13:00 +24°C° 0 mm 2 mps 628 mmHg 37%
    14:00 +25°C° 0 mm 2 mps 628 mmHg 34%
    15:00 +25°C° 0 mm 2 mps 628 mmHg 32%
    16:00 +24°C° 0 mm 2 mps 628 mmHg 37%
    17:00 +23°C° 0 mm 2 mps 627 mmHg 42%
    18:00 +21°C° 0 mm 2 mps 627 mmHg 47%
    19:00 +20°C° 0 mm 2 mps 626 mmHg 53%
    20:00 +18°C° 0 mm 2 mps 626 mmHg 59%
    21:00 +16°C° 0 mm 2 mps 625 mmHg 65%
    22:00 +15°C° 0 mm 2 mps 625 mmHg 66%
    23:00 +15°C° 0 mm 2 mps 625 mmHg 66%

    Day after tomorrow, 28 May, Thursday

    Time Temperature Precipitation Wind Pressure Humidity
    00:00 +15°C° 0 mm 2 mps 625 mmHg 66%
    01:00 +14°C° 0 mm 2 mps 624 mmHg 65%
    02:00 +14°C° 0 mm 2 mps 624 mmHg 64%
    03:00 +14°C° 0 mm 2 mps 624 mmHg 64%
    04:00 +15°C° 0 mm 1 mps 625 mmHg 62%
    05:00 +16°C° 0 mm 1 mps 625 mmHg 60%
    06:00 +18°C° 0 mm 1 mps 626 mmHg 58%
    07:00 +20°C° 0 mm 1 mps 626 mmHg 52%
    08:00 +21°C° 0 mm 1 mps 626 mmHg 46%
    09:00 +23°C° 0 mm 1 mps 627 mmHg 40%
    10:00 +24°C° 0 mm 1 mps 627 mmHg 36%
    11:00 +25°C° 0 mm 2 mps 627 mmHg 31%
    12:00 +27°C° 0 mm 2 mps 627 mmHg 27%
    13:00 +27°C° 0 mm 2 mps 627 mmHg 26%
    14:00 +27°C° 0 mm 2 mps 627 mmHg 24%
    15:00 +28°C° 0 mm 2 mps 626 mmHg 23%
    16:00 +27°C° 0 mm 2 mps 626 mmHg 28%
    17:00 +26°C° 0 mm 2 mps 626 mmHg 33%
    18:00 +25°C° 0 mm 1 mps 625 mmHg 38%
    19:00 +23°C° 0 mm 1 mps 625 mmHg 45%
    20:00 +21°C° 0 mm 1 mps 624 mmHg 53%
    21:00 +19°C° 0 mm 1 mps 624 mmHg 60%
    22:00 +19°C° 0 mm 1 mps 624 mmHg 60%
    23:00 +18°C° 0 mm 1 mps 623 mmHg 60%

    29 May, Friday

    Time Temperature Precipitation Wind Pressure Humidity
    00:00 +18°C° 0 mm 1 mps 623 mmHg 60%
    01:00 +18°C° 0 mm 1 mps 623 mmHg 57%
    02:00 +18°C° 0 mm 1 mps 622 mmHg 54%
    03:00 +16°C° 0 mm 1 mps 622 mmHg 51%
    04:00 +17°C° 0 mm 2 mps 622 mmHg 49%
    05:00 +18°C° 0 mm 2 mps 622 mmHg 47%
    06:00 +19°C° 0 mm 2 mps 623 mmHg 46%
    07:00 +21°C° 0 mm 3 mps 623 mmHg 40%
    08:00 +24°C° 0 mm 3 mps 624 mmHg 33%
    09:00 +27°C° 0 mm 4 mps 624 mmHg 27%
    10:00 +27°C° 0 mm 6 mps 624 mmHg 25%
    11:00 +28°C° 0 mm 7 mps 624 mmHg 22%
    12:00 +29°C° 0 mm 9 mps 624 mmHg 20%
    13:00 +29°C° 0 mm 9 mps 624 mmHg 19%
    14:00 +29°C° 0 mm 9 mps 623 mmHg 18%
    15:00 +29°C° 0 mm 9 mps 623 mmHg 16%
    16:00 +28°C° 0 mm 8 mps 623 mmHg 20%
    17:00 +27°C° 0 mm 7 mps 622 mmHg 23%
    18:00 +24°C° 0 mm 6 mps 622 mmHg 26%
    19:00 +22°C° 0 mm 5 mps 621 mmHg 27%
    20:00 +21°C° 0 mm 5 mps 621 mmHg 29%
    21:00 +19°C° 0 mm 4 mps 621 mmHg 30%
    22:00 +18°C° 0 mm 4 mps 620 mmHg 33%
    23:00 +17°C° 0 mm 3 mps 620 mmHg 35%

    30 May, Saturday

    Time Temperature Precipitation Wind Pressure Humidity
    00:00 +17°C° 0 mm 3 mps 620 mmHg 38%
    01:00 +16°C° 0 mm 3 mps 620 mmHg 39%
    02:00 +16°C° 0 mm 2 mps 620 mmHg 40%
    03:00 +15°C° 0 mm 2 mps 619 mmHg 42%
    04:00 +16°C° 0 mm 2 mps 620 mmHg 43%
    05:00 +16°C° 0 mm 2 mps 621 mmHg 44%
    06:00 +17°C° 0 mm 2 mps 621 mmHg 45%
    07:00 +18°C° 0 mm 3 mps 622 mmHg 41%
    08:00 +19°C° 0 mm 3 mps 622 mmHg 36%
    09:00 +20°C° 0 mm 3 mps 623 mmHg 31%
    10:00 +21°C° 0 mm 3 mps 623 mmHg 29%
    11:00 +22°C° 0 mm 3 mps 624 mmHg 26%
    12:00 +24°C° 0 mm 3 mps 624 mmHg 24%
    13:00 +24°C° 0 mm 3 mps 624 mmHg 22%
    14:00 +25°C° 0 mm 3 mps 624 mmHg 20%
    15:00 +25°C° 0 mm 3 mps 624 mmHg 18%
    16:00 +25°C° 0 mm 3 mps 624 mmHg 20%
    17:00 +24°C° 0 mm 2 mps 624 mmHg 22%
    18:00 +24°C° 0 mm 1 mps 624 mmHg 24%
    19:00 +21°C° 0 mm 1 mps 623 mmHg 29%
    20:00 +19°C° 0 mm 1 mps 623 mmHg 35%
    21:00 +16°C° 0 mm 1 mps 622 mmHg 40%
    22:00 +15°C° 0 mm 2 mps 622 mmHg 47%
    23:00 +15°C° 0 mm 2 mps 622 mmHg 53%

    31 May, Sunday

    Time Temperature Precipitation Wind Pressure Humidity
    00:00 +14°C° 0 mm 2 mps 622 mmHg 60%
    01:00 +14°C° 0 mm 2 mps 622 mmHg 61%
    02:00 +13°C° 0 mm 2 mps 622 mmHg 63%
    03:00 +13°C° 0 mm 2 mps 622 mmHg 65%
    04:00 +13°C° 0 mm 2 mps 622 mmHg 63%
    05:00 +14°C° 0 mm 2 mps 623 mmHg 62%
    06:00 +14°C° 0 mm 2 mps 623 mmHg 61%
    07:00 +16°C° 0 mm 2 mps 624 mmHg 56%
    08:00 +17°C° 0 mm 2 mps 624 mmHg 51%
    09:00 +19°C° 0 mm 2 mps 625 mmHg 45%
    10:00 +20°C° 0 mm 2 mps 625 mmHg 42%
    11:00 +21°C° 0 mm 2 mps 625 mmHg 38%
    12:00 +23°C° 0 mm 2 mps 625 mmHg 34%
    13:00 +24°C° 0 mm 2 mps 625 mmHg 32%
    14:00 +24°C° 0 mm 2 mps 625 mmHg 30%
    15:00 +25°C° 0 mm 2 mps 625 mmHg 28%
    16:00 +24°C° 0 mm 2 mps 624 mmHg 32%
    17:00 +22°C° 0 mm 3 mps 624 mmHg 35%
    18:00 +21°C° 0 mm 3 mps 623 mmHg 39%
    19:00 +19°C° 0 mm 2 mps 623 mmHg 48%
    20:00 +17°C° 0 mm 2 mps 623 mmHg 58%
    21:00 +15°C° 0 mm 2 mps 622 mmHg 68%
    22:00 +15°C° 0 mm 2 mps 622 mmHg 69%
    23:00 +14°C° 0 mm 2 mps 622 mmHg 70%
    Show more